Погода в Гревенмахере

Люксембург     49°40′52″N   6°26′29″E
темп.,
°C
ветер,
м/с
пор.,
м/с
влажн.,
%
обл.,
%
осадки,
мм/ч
давл.,
гПа
погр.,
м
25 октября, пн
пн2523:00+4ю22860 0.0 102310
02:00+4ю22900 0.0 102313
05:00+3ю2290100 0.0 102211
08:00+3ю22892 0.0 102111
11:00+8ююз247175 0.0 1022255
14:00+12юз4662100 0.0 1020604
17:00+12ююз3673100 0.0 1019295
20:00+9юз338693 0.0 102054
26 октября, вт
вт2623:00+9ююз2687100 0.0 1021170
02:00+9ююз3892100 0.1 1021266
05:00+8юз389775 0.5 1021306
08:00+8зюз3592100 0.8 1022375
11:00+9юз3586100 0.0 1024562
14:00+12зюз4677100 0.0 1023809
17:00+12зюз4679100 0.0 1023726
20:00+10зюз2577100 0.1 1025137
27 октября, ср
ср2723:00+11ююз2376100 0.0 102572
02:00+10ююз2581100 0.0 1025128
05:00+7ююз339399 0.0 102543
08:00+6ю229460 0.0 102627
11:00+10ююз24795 0.0 1026296
14:00+14юз346759 0.0 1025637
17:00+13ююз237377 0.0 1024152
20:00+9ююв118682 0.0 102410
28 октября, чт
чт2823:00+8юв118831 0.0 102410
02:00+7вюв11905 0.0 102210
05:00+6всв119033 0.0 102110
08:00+6всв11906 0.0 102110
11:00+10вюв12755 0.0 1020201
14:00+15ююв35565 0.0 1018641
17:00+14ююв23685 0.0 101678
20:00+9юв22845 0.0 101610
29 октября, пт
пт2923:00+7юв11875 0.0 101510
02:00+6ююв11875 0.0 101410
05:00+5ююв11890 0.0 101210
08:00+5ю22930 0.0 101212
11:00+9ю47792 0.0 1011361
14:00+13юз61066100 0.0 1009806
17:00+12юз4974100 0.0 1009745
20:00+9юз51295100 1.8 1010808